User: anonymous   Login
Location: Unspecified
(0.0000°N, 0.0000°E)
Time: 01:27:33
(UTC+02:00)
Language:

Atlas Centaur 2 - Orbit

View from above orbital plane
View from above orbital plane
View from above satellite
View from above satellite

Ground track
Ground track

The orbit data is extracted from the following two-line orbital elements,

1 00694U 63047A   17229.18116677  .00000215  00000-0  12433-4 0  9992
2 00694  30.3573 189.2811 0587875 200.6908 156.8928 14.02116112691281
Epoch (UTC): 17 August 2017 04:20:52
Eccentricity: 0.0587875
inclination: 30.3573°
perigee height: 459 km
apogee height: 1313 km
right ascension of ascending node: 189.2811°
argument of perigee: 200.6908°
revolutions per day: 14.02116112
mean anomaly at epoch: 156.8928°
orbit number at epoch: 69128

The dashed part of the orbit path shows where the satellite is in the earth's shadow,  

DLR